MCF1BS LOWW-LEIB

Flight info

Callsign MCF1BS
Flight time 2h 15m
Altitude 34000
Route OSPEN DCT ABRUK DCT SETAL DCT DETSA/N0489F410 DCT ADOSA DCT GOLAS DCT PIDAD DCT TALEP DCT RARQU DCT BALEN/N0491F330 DCT SORAS N850 POS
Aircraft A359/H-SDE2E3GHIJ3J4J5LM1ORWXY/LB1D1

Departure

Time 2026-05-06 15:04
Airport Vienna International Airport (LOWW)

Arrival

Time 2026-05-06 17:19
Airport Ibiza Airport (LEIB)
Time Latitude Longitude Altitude Speed Heading
2026-05-06 14:40 48.11398 16.57256 623 ft 0 kts 206°
2026-05-06 14:50 48.11354 16.57235 625 ft 8 kts 177°
2026-05-06 14:50 48.11272 16.57283 628 ft 16 kts 172°
2026-05-06 14:50 48.11181 16.57367 631 ft 19 kts 123°
2026-05-06 14:51 48.11120 16.57547 628 ft 20 kts 116°
2026-05-06 14:51 48.11057 16.57737 623 ft 20 kts 117°
2026-05-06 14:51 48.10939 16.57840 623 ft 22 kts 165°
2026-05-06 14:51 48.10795 16.57901 623 ft 22 kts 165°
2026-05-06 14:52 48.10648 16.57963 629 ft 22 kts 162°
2026-05-06 14:52 48.10504 16.58023 623 ft 22 kts 164°
2026-05-06 14:52 48.10358 16.58085 628 ft 22 kts 164°
2026-05-06 14:52 48.10209 16.58148 624 ft 23 kts 164°
2026-05-06 14:53 48.10056 16.58212 628 ft 23 kts 164°
2026-05-06 14:53 48.09903 16.58279 624 ft 23 kts 163°
2026-05-06 14:53 48.09749 16.58347 630 ft 23 kts 163°
2026-05-06 14:53 48.09595 16.58412 627 ft 23 kts 167°
2026-05-06 14:54 48.09441 16.58472 630 ft 23 kts 165°
2026-05-06 14:54 48.09288 16.58537 627 ft 23 kts 163°
2026-05-06 14:54 48.09135 16.58603 628 ft 23 kts 164°
2026-05-06 14:54 48.09039 16.58643 625 ft 0 kts 164°
2026-05-06 14:55 48.08996 16.58659 622 ft 14 kts 172°
2026-05-06 14:55 48.08953 16.58688 623 ft 3 kts 91°
2026-05-06 14:56 48.08975 16.58696 630 ft 3 kts 333°
2026-05-06 14:56 48.09049 16.58641 628 ft 17 kts 339°
2026-05-06 14:56 48.09212 16.58570 628 ft 28 kts 343°
2026-05-06 14:56 48.09402 16.58488 627 ft 29 kts 344°
2026-05-06 14:57 48.09590 16.58408 625 ft 26 kts 344°
2026-05-06 14:57 48.09766 16.58334 625 ft 27 kts 344°
2026-05-06 14:57 48.09951 16.58255 628 ft 28 kts 344°
2026-05-06 14:57 48.10124 16.58183 628 ft 25 kts 344°
2026-05-06 14:58 48.10298 16.58108 627 ft 27 kts 344°
2026-05-06 14:58 48.10482 16.58031 629 ft 28 kts 342°
2026-05-06 14:58 48.10671 16.57952 629 ft 29 kts 344°
2026-05-06 14:58 48.10869 16.57867 630 ft 30 kts 344°
2026-05-06 14:59 48.10998 16.57812 631 ft 9 kts 344°
2026-05-06 14:59 48.11084 16.57777 626 ft 17 kts 345°
2026-05-06 14:59 48.11204 16.57727 628 ft 19 kts 345°
2026-05-06 14:59 48.11336 16.57671 631 ft 21 kts 344°
2026-05-06 15:00 48.11492 16.57604 628 ft 24 kts 344°
2026-05-06 15:00 48.11658 16.57533 626 ft 26 kts 344°
2026-05-06 15:00 48.11835 16.57459 628 ft 27 kts 344°
2026-05-06 15:00 48.11938 16.57416 629 ft 0 kts 345°
2026-05-06 15:01 48.11976 16.57425 630 ft 10 kts 28°
2026-05-06 15:01 48.11998 16.57518 621 ft 10 kts 101°
2026-05-06 15:01 48.11995 16.57547 620 ft 0 kts 99°
2026-05-06 15:02 48.11988 16.57623 621 ft 14 kts 99°
2026-05-06 15:02 48.11964 16.57769 624 ft 14 kts 107°
2026-05-06 15:02 48.11918 16.57840 630 ft 0 kts 159°
2026-05-06 15:03 48.11897 16.57851 629 ft 15 kts 162°
2026-05-06 15:03 48.11575 16.57989 629 ft 82 kts 164°
2026-05-06 15:03 48.10827 16.58305 624 ft 139 kts 164°
2026-05-06 15:04 48.09875 16.58696 1276 ft 136 kts 170°
2026-05-06 15:04 48.08922 16.59074 1813 ft 153 kts 170°
2026-05-06 15:04 48.07793 16.59458 2100 ft 178 kts 176°
2026-05-06 15:04 48.06547 16.59125 2556 ft 190 kts 207°
2026-05-06 15:05 48.05417 16.57860 2936 ft 218 kts 220°
2026-05-06 15:05 48.04285 16.56265 3500 ft 232 kts 222°
2026-05-06 15:05 48.03114 16.54584 4297 ft 234 kts 221°
2026-05-06 15:05 48.01924 16.52900 5131 ft 238 kts 221°
2026-05-06 15:06 48.00703 16.51194 5932 ft 242 kts 221°
2026-05-06 15:06 47.99463 16.49470 6759 ft 245 kts 222°
2026-05-06 15:06 47.98202 16.47722 7625 ft 249 kts 222°
2026-05-06 15:06 47.96931 16.45926 8452 ft 254 kts 225°
2026-05-06 15:07 47.95924 16.43788 9395 ft 258 kts 243°
2026-05-06 15:07 47.95340 16.41220 10224 ft 265 kts 252°
2026-05-06 15:07 47.94852 16.38464 10679 ft 285 kts 253°
2026-05-06 15:07 47.94333 16.35487 11027 ft 307 kts 253°
2026-05-06 15:08 47.93769 16.32299 11374 ft 327 kts 253°
2026-05-06 15:08 47.93170 16.28944 11925 ft 339 kts 253°
2026-05-06 15:08 47.92555 16.25512 12621 ft 346 kts 253°
2026-05-06 15:08 47.91928 16.22028 13490 ft 346 kts 253°
2026-05-06 15:09 47.91303 16.18574 14255 ft 349 kts 253°
2026-05-06 15:09 47.90658 16.15030 14880 ft 356 kts 253°
2026-05-06 15:09 47.90010 16.11475 15446 ft 363 kts 253°
2026-05-06 15:09 47.89348 16.07846 16265 ft 364 kts 253°
2026-05-06 15:10 47.88680 16.04192 16987 ft 367 kts 252°
2026-05-06 15:10 47.87932 16.00527 17640 ft 371 kts 248°
2026-05-06 15:10 47.86785 15.97073 18267 ft 374 kts 237°
2026-05-06 15:10 47.85141 15.94063 18935 ft 375 kts 224°
2026-05-06 15:11 47.83841 15.92366 19443 ft 375 kts 219°
2026-05-06 15:11 47.81761 15.89981 20099 ft 380 kts 218°
2026-05-06 15:11 47.79641 15.87609 20715 ft 385 kts 218°
2026-05-06 15:11 47.76786 15.84409 21695 ft 388 kts 218°
2026-05-06 15:12 47.75327 15.82772 22157 ft 390 kts 218°
2026-05-06 15:12 47.73150 15.80324 22888 ft 392 kts 218°
2026-05-06 15:12 47.70992 15.77895 23630 ft 393 kts 218°
2026-05-06 15:12 47.68795 15.75424 24111 ft 398 kts 218°
2026-05-06 15:13 47.66570 15.72926 24613 ft 403 kts 218°
2026-05-06 15:13 47.64347 15.70431 25207 ft 404 kts 218°
2026-05-06 15:13 47.62093 15.67902 25849 ft 406 kts 218°
2026-05-06 15:13 47.59830 15.65366 26541 ft 405 kts 218°
2026-05-06 15:14 47.57598 15.62867 27137 ft 407 kts 218°
2026-05-06 15:14 47.55315 15.60315 27458 ft 415 kts 218°
2026-05-06 15:14 47.53011 15.57701 27909 ft 419 kts 220°
2026-05-06 15:14 47.50874 15.54756 28432 ft 420 kts 227°
2026-05-06 15:15 47.49062 15.51332 28950 ft 424 kts 236°
2026-05-06 15:15 47.47650 15.47475 29479 ft 428 kts 245°
2026-05-06 15:15 47.46640 15.43348 29957 ft 432 kts 250°
2026-05-06 15:15 47.45760 15.39071 30332 ft 435 kts 251°
2026-05-06 15:16 47.44930 15.34750 30740 ft 437 kts 252°
2026-05-06 15:16 47.44123 15.30452 31183 ft 438 kts 252°
2026-05-06 15:16 47.43309 15.26132 31599 ft 439 kts 252°
2026-05-06 15:16 47.42472 15.21758 31927 ft 440 kts 252°
2026-05-06 15:17 47.41638 15.17445 32246 ft 442 kts 252°
2026-05-06 15:17 47.40783 15.13070 32719 ft 442 kts 252°
2026-05-06 15:17 47.39926 15.08733 33285 ft 438 kts 252°
2026-05-06 15:17 47.39070 15.04422 33866 ft 434 kts 252°
2026-05-06 15:18 47.38227 15.00189 34244 ft 433 kts 251°
2026-05-06 15:18 47.37381 14.95924 34572 ft 433 kts 251°
2026-05-06 15:18 47.36528 14.91652 34919 ft 432 kts 251°
2026-05-06 15:18 47.35672 14.87383 35190 ft 433 kts 251°
2026-05-06 15:19 47.34813 14.83108 35471 ft 434 kts 251°
2026-05-06 15:19 47.33963 14.78883 35810 ft 433 kts 251°
2026-05-06 15:19 47.33104 14.74618 36147 ft 433 kts 251°
2026-05-06 15:19 47.32247 14.70368 36456 ft 433 kts 251°
2026-05-06 15:20 47.31387 14.66110 36775 ft 432 kts 251°
2026-05-06 15:20 47.30524 14.61843 36930 ft 435 kts 250°
2026-05-06 15:20 47.29652 14.57552 37054 ft 438 kts 251°
2026-05-06 15:20 47.28776 14.53244 37303 ft 439 kts 250°
2026-05-06 15:21 47.27895 14.48923 37544 ft 440 kts 250°
2026-05-06 15:21 47.27023 14.44652 37844 ft 440 kts 250°
2026-05-06 15:21 47.26139 14.40333 38103 ft 440 kts 250°
2026-05-06 15:21 47.25246 14.35981 38306 ft 440 kts 250°
2026-05-06 15:22 47.24371 14.31728 38519 ft 441 kts 250°
2026-05-06 15:22 47.23470 14.27351 38715 ft 441 kts 250°
2026-05-06 15:22 47.22591 14.23072 38873 ft 442 kts 250°
2026-05-06 15:22 47.21697 14.18737 39033 ft 442 kts 250°
2026-05-06 15:23 47.20799 14.14414 39287 ft 440 kts 251°
2026-05-06 15:23 47.19903 14.10119 39508 ft 438 kts 250°
2026-05-06 15:23 47.19006 14.05829 39749 ft 437 kts 251°
2026-05-06 15:24 47.17215 13.97284 39838 ft 442 kts 251°
2026-05-06 15:24 47.15396 13.88633 39842 ft 442 kts 251°
2026-05-06 15:25 47.13572 13.79987 39840 ft 443 kts 251°
2026-05-06 15:25 47.11751 13.71391 39839 ft 443 kts 251°
2026-05-06 15:26 47.09914 13.62752 39843 ft 443 kts 251°
2026-05-06 15:26 47.08076 13.54155 39832 ft 442 kts 251°
2026-05-06 15:27 47.06230 13.45548 39831 ft 442 kts 250°
2026-05-06 15:27 47.04369 13.36916 39823 ft 442 kts 250°
2026-05-06 15:28 47.02508 13.28324 39825 ft 442 kts 251°
2026-05-06 15:28 47.00641 13.19732 39833 ft 447 kts 250°
2026-05-06 15:29 46.98741 13.11026 39819 ft 448 kts 250°
2026-05-06 15:29 46.96834 13.02306 39830 ft 448 kts 250°
2026-05-06 15:30 46.94926 12.93639 39835 ft 449 kts 250°
2026-05-06 15:30 46.93004 12.84945 39821 ft 449 kts 250°
2026-05-06 15:31 46.91075 12.76249 39863 ft 449 kts 250°
2026-05-06 15:31 46.89154 12.67617 39845 ft 449 kts 250°
2026-05-06 15:32 46.86237 12.54595 39872 ft 449 kts 250°
2026-05-06 15:32 46.84280 12.45898 39896 ft 449 kts 250°
2026-05-06 15:33 46.82315 12.37245 39918 ft 449 kts 249°
2026-05-06 15:33 46.79527 12.29178 39946 ft 446 kts 234°
2026-05-06 15:34 46.75316 12.22604 39937 ft 447 kts 220°
2026-05-06 15:34 46.70385 12.16981 39843 ft 448 kts 218°
2026-05-06 15:35 46.65419 12.11586 39845 ft 446 kts 218°
2026-05-06 15:35 46.60473 12.06192 39852 ft 446 kts 218°
2026-05-06 15:36 46.55507 12.00750 39855 ft 446 kts 218°
2026-05-06 15:36 46.50551 11.95298 39862 ft 445 kts 218°
2026-05-06 15:37 46.45633 11.89898 39869 ft 445 kts 218°
2026-05-06 15:37 46.40681 11.84476 39874 ft 444 kts 218°
2026-05-06 15:38 46.35757 11.79100 39870 ft 445 kts 218°
2026-05-06 15:38 46.30821 11.73726 39879 ft 444 kts 218°
2026-05-06 15:39 46.25878 11.68359 39878 ft 443 kts 218°
2026-05-06 15:39 46.20961 11.63030 39886 ft 443 kts 218°
2026-05-06 15:40 46.16011 11.57677 40058 ft 441 kts 218°
2026-05-06 15:40 46.13555 11.55028 40310 ft 439 kts 218°
2026-05-06 15:40 46.11111 11.52393 40546 ft 437 kts 218°
2026-05-06 15:41 46.08710 11.49808 40794 ft 435 kts 218°
2026-05-06 15:41 46.06284 11.47196 40897 ft 437 kts 218°
2026-05-06 15:41 46.01375 11.41920 40913 ft 442 kts 218°
2026-05-06 15:42 45.96403 11.36592 40913 ft 446 kts 218°
2026-05-06 15:42 45.91450 11.31300 40914 ft 445 kts 218°
2026-05-06 15:43 45.86478 11.25999 40913 ft 445 kts 218°
2026-05-06 15:43 45.81523 11.20725 40906 ft 445 kts 218°
2026-05-06 15:44 45.76555 11.15446 40904 ft 444 kts 218°
2026-05-06 15:44 45.71565 11.10162 40911 ft 444 kts 217°
2026-05-06 15:45 45.66639 11.04956 40888 ft 444 kts 218°
2026-05-06 15:45 45.61687 10.99597 40869 ft 443 kts 220°
2026-05-06 15:46 45.57042 10.93890 40863 ft 443 kts 222°
2026-05-06 15:46 45.52384 10.88061 40854 ft 444 kts 221°
2026-05-06 15:47 45.47693 10.82311 40852 ft 444 kts 221°
2026-05-06 15:47 45.43015 10.76655 40856 ft 442 kts 221°
2026-05-06 15:48 45.38332 10.71021 40858 ft 441 kts 221°
2026-05-06 15:48 45.33636 10.65383 40859 ft 441 kts 221°
2026-05-06 15:49 45.28964 10.59788 40861 ft 441 kts 220°
2026-05-06 15:49 45.24125 10.54416 40850 ft 440 kts 218°
2026-05-06 15:50 45.19266 10.49225 40853 ft 439 kts 218°
2026-05-06 15:50 45.14369 10.44029 40858 ft 439 kts 218°
2026-05-06 15:51 45.09472 10.38826 40865 ft 439 kts 218°
2026-05-06 15:51 45.04587 10.33636 40872 ft 442 kts 218°
2026-05-06 15:52 44.99661 10.28412 40839 ft 442 kts 218°
2026-05-06 15:52 44.94759 10.23226 40834 ft 442 kts 218°
2026-05-06 15:53 44.89826 10.18019 40831 ft 442 kts 218°
2026-05-06 15:53 44.85716 10.13689 40832 ft 442 kts 218°
2026-05-06 15:54 44.80768 10.08486 40839 ft 443 kts 218°
2026-05-06 15:54 44.75855 10.03331 40846 ft 442 kts 218°
2026-05-06 15:55 44.70899 9.98143 40851 ft 440 kts 218°
2026-05-06 15:55 44.66027 9.93055 40861 ft 438 kts 218°
2026-05-06 15:56 44.61118 9.87938 40865 ft 438 kts 218°
2026-05-06 15:56 44.56247 9.82870 40858 ft 437 kts 218°
2026-05-06 15:57 44.51326 9.77760 40872 ft 440 kts 218°
2026-05-06 15:57 44.46410 9.72670 40873 ft 441 kts 218°
2026-05-06 15:58 44.41480 9.67577 40868 ft 441 kts 218°
2026-05-06 15:58 44.36523 9.62463 40879 ft 441 kts 218°
2026-05-06 15:59 44.31592 9.57391 40888 ft 441 kts 218°
2026-05-06 15:59 44.26638 9.52305 40889 ft 441 kts 218°
2026-05-06 16:00 44.21689 9.47235 40877 ft 441 kts 218°
2026-05-06 16:00 44.16741 9.42177 40897 ft 444 kts 218°
2026-05-06 16:01 44.11765 9.37099 40886 ft 445 kts 218°
2026-05-06 16:01 44.06784 9.32029 40887 ft 446 kts 218°
2026-05-06 16:02 44.01769 9.26935 40884 ft 446 kts 218°
2026-05-06 16:02 43.96754 9.21851 40877 ft 446 kts 218°
2026-05-06 16:03 43.91734 9.16773 40878 ft 446 kts 218°
2026-05-06 16:03 43.86709 9.11701 40879 ft 446 kts 218°
2026-05-06 16:04 43.81686 9.06643 40880 ft 444 kts 218°
2026-05-06 16:04 43.76733 9.01665 40876 ft 441 kts 218°
2026-05-06 16:05 43.71790 8.96707 40876 ft 441 kts 218°
2026-05-06 16:05 43.66819 8.91730 40866 ft 440 kts 218°
2026-05-06 16:06 43.61860 8.86778 40879 ft 438 kts 218°
2026-05-06 16:06 43.56920 8.81854 40881 ft 438 kts 218°
2026-05-06 16:07 43.51998 8.76958 40875 ft 438 kts 218°
2026-05-06 16:07 43.47060 8.72020 40880 ft 437 kts 220°
2026-05-06 16:08 43.42448 8.66573 40884 ft 436 kts 223°
2026-05-06 16:08 43.37925 8.60990 40884 ft 436 kts 223°
2026-05-06 16:09 43.33449 8.55435 40889 ft 436 kts 223°
2026-05-06 16:09 43.28930 8.49851 40889 ft 436 kts 223°
2026-05-06 16:10 43.24418 8.44299 40895 ft 436 kts 223°
2026-05-06 16:10 43.19921 8.38780 40901 ft 436 kts 223°
2026-05-06 16:11 43.15402 8.33246 40901 ft 436 kts 223°
2026-05-06 16:11 43.10861 8.27694 40895 ft 437 kts 223°
2026-05-06 16:12 43.06310 8.22144 40900 ft 437 kts 223°
2026-05-06 16:12 43.01796 8.16650 40906 ft 437 kts 223°
2026-05-06 16:13 42.97253 8.11132 40908 ft 437 kts 223°
2026-05-06 16:13 42.92703 8.05616 40905 ft 437 kts 223°
2026-05-06 16:14 42.88159 8.00119 40911 ft 436 kts 223°
2026-05-06 16:14 42.83637 7.94660 40916 ft 437 kts 223°
2026-05-06 16:15 42.79065 7.89151 40913 ft 439 kts 223°
2026-05-06 16:15 42.74478 7.83636 40903 ft 439 kts 223°
2026-05-06 16:16 42.69929 7.78178 40917 ft 438 kts 223°
2026-05-06 16:16 42.65358 7.72705 40914 ft 438 kts 223°
2026-05-06 16:17 42.60780 7.67233 40914 ft 438 kts 223°
2026-05-06 16:17 42.56201 7.61774 40919 ft 438 kts 223°
2026-05-06 16:18 42.51623 7.56325 40924 ft 438 kts 223°
2026-05-06 16:18 42.47029 7.50868 40918 ft 439 kts 223°
2026-05-06 16:19 42.42429 7.45416 40926 ft 439 kts 223°
2026-05-06 16:19 42.37857 7.40007 40926 ft 439 kts 223°
2026-05-06 16:20 42.33251 7.34570 40928 ft 439 kts 223°
2026-05-06 16:20 42.28646 7.29145 40933 ft 438 kts 223°
2026-05-06 16:21 42.24045 7.23735 40930 ft 438 kts 223°
2026-05-06 16:21 42.19462 7.18357 40933 ft 438 kts 223°
2026-05-06 16:22 42.14845 7.12950 40935 ft 438 kts 223°
2026-05-06 16:22 42.10238 7.07565 40935 ft 438 kts 223°
2026-05-06 16:23 42.05655 7.02219 40939 ft 438 kts 223°
2026-05-06 16:23 42.01044 6.96845 40936 ft 438 kts 223°
2026-05-06 16:24 41.96526 6.91341 40937 ft 438 kts 224°
2026-05-06 16:24 41.92052 6.85786 40934 ft 437 kts 224°
2026-05-06 16:25 41.87587 6.80285 40941 ft 438 kts 224°
2026-05-06 16:25 41.83075 6.74768 40941 ft 438 kts 224°
2026-05-06 16:26 41.78582 6.69296 40925 ft 438 kts 224°
2026-05-06 16:26 41.74072 6.63815 40943 ft 438 kts 224°
2026-05-06 16:27 41.69556 6.58336 40945 ft 438 kts 224°
2026-05-06 16:27 41.65036 6.52862 40938 ft 438 kts 224°
2026-05-06 16:28 41.60546 6.47434 40938 ft 438 kts 224°
2026-05-06 16:28 41.56020 6.41974 40946 ft 438 kts 224°
2026-05-06 16:29 41.51494 6.36525 40945 ft 438 kts 224°
2026-05-06 16:29 41.46962 6.31080 40950 ft 438 kts 224°
2026-05-06 16:30 41.43198 6.26565 40940 ft 438 kts 224°
2026-05-06 16:30 41.38189 6.19927 40942 ft 436 kts 233°
2026-05-06 16:31 41.34871 6.13185 40946 ft 435 kts 239°
2026-05-06 16:31 41.31780 6.06314 40948 ft 435 kts 239°
2026-05-06 16:32 41.28669 5.99396 40949 ft 435 kts 239°
2026-05-06 16:32 41.25561 5.92502 40952 ft 435 kts 239°
2026-05-06 16:33 41.22443 5.85600 40941 ft 435 kts 239°
2026-05-06 16:34 41.17778 5.75305 40949 ft 435 kts 239°
2026-05-06 16:34 41.14653 5.68427 40959 ft 435 kts 239°
2026-05-06 16:35 41.11524 5.61557 40950 ft 434 kts 239°
2026-05-06 16:35 41.08408 5.54730 40941 ft 434 kts 239°
2026-05-06 16:36 41.05271 5.47872 40950 ft 434 kts 239°
2026-05-06 16:36 41.02143 5.41049 40949 ft 434 kts 239°
2026-05-06 16:37 40.99016 5.34244 40943 ft 434 kts 239°
2026-05-06 16:37 40.95858 5.27387 40948 ft 434 kts 239°
2026-05-06 16:38 40.92724 5.20595 40951 ft 434 kts 239°
2026-05-06 16:38 40.89577 5.13793 40951 ft 434 kts 239°
2026-05-06 16:39 40.86418 5.06978 40936 ft 434 kts 239°
2026-05-06 16:39 40.83256 5.00173 40943 ft 434 kts 239°
2026-05-06 16:40 40.80082 4.93358 40925 ft 434 kts 239°
2026-05-06 16:40 40.76930 4.86604 40946 ft 434 kts 239°
2026-05-06 16:41 40.73755 4.79816 40946 ft 434 kts 239°
2026-05-06 16:41 40.70573 4.73028 40941 ft 434 kts 239°
2026-05-06 16:42 40.67411 4.66296 40933 ft 434 kts 239°
2026-05-06 16:42 40.64219 4.59518 40941 ft 434 kts 239°
2026-05-06 16:43 40.61567 4.53896 40944 ft 435 kts 239°
2026-05-06 16:43 40.57848 4.46030 40936 ft 435 kts 239°
2026-05-06 16:44 40.55184 4.40409 40952 ft 435 kts 239°
2026-05-06 16:44 40.51978 4.33657 40933 ft 435 kts 239°
2026-05-06 16:45 40.48227 4.25773 40936 ft 435 kts 239°
2026-05-06 16:45 40.45553 4.20168 40936 ft 435 kts 239°
2026-05-06 16:46 40.42342 4.13449 40939 ft 435 kts 239°
2026-05-06 16:46 40.39139 4.06761 40930 ft 435 kts 239°
2026-05-06 16:47 40.35913 4.00039 40938 ft 434 kts 239°
2026-05-06 16:47 40.32687 3.93334 40933 ft 434 kts 238°
2026-05-06 16:48 40.29463 3.86645 40941 ft 434 kts 238°
2026-05-06 16:48 40.26253 3.80000 40941 ft 434 kts 238°
2026-05-06 16:49 40.23011 3.73301 40933 ft 434 kts 238°
2026-05-06 16:49 40.19765 3.66612 40935 ft 435 kts 238°
2026-05-06 16:50 40.16543 3.59985 40935 ft 433 kts 238°
2026-05-06 16:50 40.13302 3.53333 40928 ft 433 kts 238°
2026-05-06 16:51 40.10059 3.46690 40938 ft 433 kts 238°
2026-05-06 16:51 40.06831 3.40093 40938 ft 433 kts 238°
2026-05-06 16:52 40.03578 3.33459 40935 ft 433 kts 238°
2026-05-06 16:52 40.00323 3.26835 40937 ft 433 kts 238°
2026-05-06 16:53 39.97087 3.20263 40932 ft 433 kts 238°
2026-05-06 16:53 39.93748 3.13731 40936 ft 433 kts 233°
2026-05-06 16:53 39.91616 3.10918 40940 ft 437 kts 221°
2026-05-06 16:54 39.89082 3.08737 40934 ft 440 kts 213°
2026-05-06 16:54 39.83743 3.04863 40946 ft 442 kts 213°
2026-05-06 16:55 39.78344 3.00967 40941 ft 444 kts 213°
2026-05-06 16:55 39.72935 2.97052 40935 ft 444 kts 213°
2026-05-06 16:56 39.67576 2.93173 40935 ft 444 kts 213°
2026-05-06 16:56 39.62183 2.89276 40884 ft 437 kts 213°
2026-05-06 16:56 39.59550 2.87378 40532 ft 431 kts 213°
2026-05-06 16:57 39.56950 2.85505 40262 ft 422 kts 213°
2026-05-06 16:57 39.54433 2.83692 40013 ft 415 kts 213°
2026-05-06 16:57 39.51904 2.81870 39781 ft 413 kts 213°
2026-05-06 16:57 39.49387 2.80057 39587 ft 413 kts 213°
2026-05-06 16:58 39.46882 2.78246 39489 ft 411 kts 214°
2026-05-06 16:58 39.42375 2.73877 39489 ft 404 kts 227°
2026-05-06 16:58 39.40446 2.71288 39215 ft 397 kts 231°
2026-05-06 16:59 39.38765 2.68460 38702 ft 394 kts 238°
2026-05-06 16:59 39.37325 2.65423 37824 ft 399 kts 241°
2026-05-06 16:59 39.35948 2.62276 36833 ft 405 kts 242°
2026-05-06 16:59 39.34589 2.59120 35949 ft 409 kts 242°
2026-05-06 17:00 39.33205 2.55896 35149 ft 411 kts 242°
2026-05-06 17:00 39.31820 2.52670 34016 ft 410 kts 242°
2026-05-06 17:00 39.30437 2.49450 32411 ft 413 kts 242°
2026-05-06 17:00 39.29035 2.46186 30977 ft 413 kts 242°
2026-05-06 17:01 39.27640 2.42943 29668 ft 411 kts 242°
2026-05-06 17:01 39.26256 2.39729 28270 ft 406 kts 241°
2026-05-06 17:01 39.24865 2.36500 26822 ft 419 kts 241°
2026-05-06 17:01 39.23459 2.33241 26030 ft 420 kts 241°
2026-05-06 17:02 39.22035 2.29944 25150 ft 421 kts 241°
2026-05-06 17:02 39.20607 2.26639 24295 ft 422 kts 241°
2026-05-06 17:02 39.19176 2.23332 23565 ft 420 kts 241°
2026-05-06 17:02 39.17751 2.20044 22710 ft 418 kts 241°
2026-05-06 17:03 39.16333 2.16774 21971 ft 414 kts 241°
2026-05-06 17:03 39.14951 2.13590 21526 ft 412 kts 241°
2026-05-06 17:03 39.13546 2.10357 21237 ft 412 kts 241°
2026-05-06 17:03 39.12142 2.07129 20987 ft 411 kts 241°
2026-05-06 17:04 39.10743 2.03915 20716 ft 410 kts 241°
2026-05-06 17:04 39.09350 2.00719 20295 ft 409 kts 241°
2026-05-06 17:04 39.07957 1.97527 19850 ft 407 kts 241°
2026-05-06 17:04 39.06573 1.94357 19395 ft 406 kts 241°
2026-05-06 17:05 39.05206 1.91232 18947 ft 405 kts 241°
2026-05-06 17:05 39.03824 1.88074 18489 ft 404 kts 242°
2026-05-06 17:05 39.02444 1.84923 18002 ft 403 kts 242°
2026-05-06 17:05 39.01065 1.81778 17530 ft 402 kts 241°
2026-05-06 17:06 38.99693 1.78652 17068 ft 399 kts 241°
2026-05-06 17:06 38.98328 1.75546 16604 ft 397 kts 241°
2026-05-06 17:06 38.96972 1.72462 16166 ft 395 kts 241°
2026-05-06 17:06 38.95624 1.69399 15730 ft 393 kts 241°
2026-05-06 17:07 38.94295 1.66384 15272 ft 392 kts 241°
2026-05-06 17:07 38.92946 1.63325 14857 ft 394 kts 241°
2026-05-06 17:07 38.91598 1.60272 14429 ft 391 kts 241°
2026-05-06 17:07 38.90252 1.57227 13942 ft 391 kts 241°
2026-05-06 17:08 38.88918 1.54211 13462 ft 387 kts 241°
2026-05-06 17:08 38.87586 1.51204 12991 ft 388 kts 241°
2026-05-06 17:08 38.86274 1.48243 12552 ft 385 kts 241°
2026-05-06 17:08 38.84942 1.45243 12102 ft 385 kts 241°
2026-05-06 17:09 38.83621 1.42268 11618 ft 383 kts 241°
2026-05-06 17:09 38.82309 1.39316 10953 ft 374 kts 241°
2026-05-06 17:09 38.81063 1.36520 10492 ft 347 kts 241°
2026-05-06 17:09 38.79906 1.33928 10079 ft 323 kts 242°
2026-05-06 17:10 38.78832 1.31519 9853 ft 296 kts 242°
2026-05-06 17:10 38.77853 1.29326 9706 ft 282 kts 242°
2026-05-06 17:10 38.76884 1.27149 8979 ft 279 kts 242°
2026-05-06 17:10 38.75919 1.24982 8158 ft 279 kts 241°
2026-05-06 17:11 38.74958 1.22828 7468 ft 275 kts 241°
2026-05-06 17:11 38.74023 1.20736 6962 ft 266 kts 241°
2026-05-06 17:11 38.73121 1.18718 6363 ft 262 kts 240°
2026-05-06 17:11 38.72340 1.16641 5875 ft 253 kts 252°
2026-05-06 17:12 38.72060 1.14486 5605 ft 237 kts 271°
2026-05-06 17:12 38.72388 1.12483 5291 ft 225 kts 295°
2026-05-06 17:12 38.73384 1.11007 4884 ft 216 kts 331°
2026-05-06 17:12 38.74709 1.10336 4604 ft 202 kts 347°
2026-05-06 17:13 38.76070 1.10377 4165 ft 193 kts 16°
2026-05-06 17:13 38.77281 1.11017 3670 ft 187 kts 44°
2026-05-06 17:13 38.77816 1.12465 3222 ft 183 kts 84°
2026-05-06 17:13 38.78065 1.14065 3036 ft 183 kts 75°
2026-05-06 17:14 38.78436 1.15592 3017 ft 176 kts 71°
2026-05-06 17:14 38.78921 1.17056 3020 ft 183 kts 65°
2026-05-06 17:14 38.79498 1.18502 2997 ft 179 kts 63°
2026-05-06 17:14 38.80060 1.19845 2818 ft 164 kts 63°
2026-05-06 17:15 38.80576 1.21093 2602 ft 153 kts 64°
2026-05-06 17:15 38.81063 1.22275 2391 ft 145 kts 63°
2026-05-06 17:15 38.81525 1.23392 2192 ft 138 kts 63°
2026-05-06 17:15 38.81959 1.24442 2029 ft 133 kts 63°
2026-05-06 17:16 38.82395 1.25493 1849 ft 133 kts 64°
2026-05-06 17:16 38.82828 1.26543 1699 ft 134 kts 63°
2026-05-06 17:16 38.83262 1.27594 1483 ft 133 kts 62°
2026-05-06 17:16 38.83697 1.28643 1316 ft 134 kts 63°
2026-05-06 17:17 38.84136 1.29706 1127 ft 135 kts 64°
2026-05-06 17:17 38.84574 1.30765 961 ft 135 kts 63°
2026-05-06 17:17 38.85014 1.31826 765 ft 133 kts 65°
2026-05-06 17:17 38.85438 1.32856 596 ft 132 kts 63°
2026-05-06 17:18 38.85879 1.33919 409 ft 134 kts 66°
2026-05-06 17:18 38.86308 1.34959 229 ft 132 kts 64°
2026-05-06 17:18 38.86737 1.35990 43 ft 130 kts 61°
2026-05-06 17:18 38.87116 1.36906 18 ft 91 kts 62°
2026-05-06 17:19 38.87284 1.37306 20 ft 27 kts 59°
2026-05-06 17:19 38.87415 1.37469 18 ft 26 kts 34°
2026-05-06 17:19 38.87535 1.37557 17 ft 15 kts 14°
2026-05-06 17:19 38.87637 1.37520 15 ft 17 kts 333°
2026-05-06 17:20 38.87716 1.37446 15 ft 14 kts 327°
2026-05-06 17:20 38.87728 1.37436 15 ft 0 kts 327°
2026-05-06 17:20 38.87741 1.37427 15 ft 7 kts 334°
2026-05-06 17:21 38.87744 1.37425 15 ft 0 kts 334°